Location: Calberlah
(52.4230°N, 10.6240°E)
Time: 06:17:05
(UTC+00:00)

Cosmos 2056 Rocket - Pass Details

Date: 19 May 2025
Orbit: 739 x 796 km, 74.0° (Epoch: 22 June)

Event Time Altitude Azimuth Distance (km) Brightness Sun altitude
Rises 22:39:34 0° 336° (NNW) 3,292 8.3 -17.2°
Reaches altitude 10° 22:42:04 10° 341° (NNW) 2,352 7.3 -17.3°
Maximum altitude 22:47:17 52° 58° (ENE) 968 4.1 -17.4°
Enters shadow 22:50:56 19° 128° (SE) 1,779 5.0 -17.4°
